GW5387 Weather Reports


time (UTC)temp
C
wind
direction
speed
KPH
gust
KPH
rain 1hr
cm
rain 24hr
cm
rain mn
cm
humidity
%
barometer
mb
20260906092822 17 350 3.2 4.8 0.00 0.00 0.00 62 1024.0
20260906092322 17 21 1.6 3.2 0.00 0.00 0.00 60 1024.0
20260906091822 17 314 1.6 3.2 0.00 0.00 0.00 59 1024.0
20260906091324 17 32 1.6 1.6 0.00 0.00 0.00 59 1024.0
20260906090822 17 311 3.2 6.4 0.00 0.00 0.00 59 1024.0
20260906090322 16 318 3.2 6.4 0.00 0.00 0.00 64 1024.0
20260906085822 16 307 3.2 6.4 0.00 0.00 0.00 66 1024.0
20260906085322 16 324 1.6 4.8 0.00 0.00 0.00 67 1024.0
20260906084822 16 343 1.6 3.2 0.00 0.00 0.00 67 1024.0
20260906084323 16 341 1.6 4.8 0.00 0.00 0.00 68 1024.0
20260906083822 16 360 1.6 4.8 0.00 0.00 0.00 71 1024.0
20260906083322 16 7 3.2 4.8 0.00 0.00 0.00 71 1024.0
20260906082822 16 4 3.2 6.4 0.00 0.00 0.00 70 1024.0
20260906082322 16 353 4.8 8.0 0.00 0.00 0.00 69 1024.0
20260906081822 16 350 3.2 4.8 0.00 0.00 0.00 69 1024.0
20260906081322 16 28 3.2 8.0 0.00 0.00 0.00 69 1024.0
20260906080822 16 39 3.2 3.2 0.00 0.00 0.00 70 1024.0
20260906080323 16 12 3.2 4.8 0.00 0.00 0.00 71 1024.0
20260906075822 16 15 3.2 4.8 0.00 0.00 0.00 70 1024.0
20260906075322 17 359 0.0 1.6 0.00 0.00 0.00 69 1024.0
20260906074823 17 33 1.6 3.2 0.00 0.00 0.00 69 1024.0
20260906074322 17 335 3.2 3.2 0.00 0.00 0.00 69 1024.0
20260906073822 17 348 3.2 4.8 0.00 0.00 0.00 70 1024.0
20260906073322 17 331 4.8 6.4 0.00 0.00 0.00 71 1024.0
20260906072822 17 334 3.2 4.8 0.00 0.00 0.00 70 1024.0
20260906072322 17 348 1.6 4.8 0.00 0.00 0.00 69 1024.0
20260906071822 17 343 3.2 4.8 0.00 0.00 0.00 68 1024.0
20260906071322 17 284 3.2 4.8 0.00 0.00 0.00 68 1024.0
20260906070822 17 276 3.2 6.4 0.00 0.00 0.00 66 1024.0
20260906070322 17 290 3.2 4.8 0.00 0.00 0.00 68 1024.0
20260906065822 16 267 1.6 3.2 0.00 0.00 0.00 71 1024.0
20260906065324 16 278 4.8 8.0 0.00 0.00 0.00 73 1024.0
20260906064823 17 280 6.4 8.0 0.00 0.00 0.00 72 1024.0
20260906064322 17 295 0.0 1.6 0.00 0.00 0.00 72 1024.0
20260906063822 17 41 0.0 1.6 0.00 0.00 0.00 71 1024.0
20260906063322 16 244 1.6 3.2 0.00 0.00 0.00 70 1024.0
20260906062822 16 271 3.2 4.8 0.00 0.00 0.00 71 1024.0
20260906062322 16 308 1.6 3.2 0.00 0.00 0.00 72 1024.0
20260906061822 16 184 0.0 3.2 0.00 0.00 0.00 72 1024.0
20260906061322 16 282 3.2 3.2 0.00 0.00 0.00 70 1024.0
20260906060822 16 115 0.0 1.6 0.00 0.00 0.00 70 1024.0
20260906060322 16 340 4.8 6.4 0.00 0.00 0.00 71 1024.0
20260906055822 16 350 1.6 3.2 0.00 0.00 0.05 71 1024.0
20260906055322 16 346 3.2 6.4 0.00 0.00 0.05 71 1024.0
20260906054822 16 328 3.2 6.4 0.00 0.00 0.05 71 1024.0
20260906054323 16 357 4.8 6.4 0.00 0.00 0.05 70 1024.0
20260906053822 16 359 3.2 6.4 0.00 0.00 0.05 69 1024.0
20260906053322 16 3 3.2 6.4 0.00 0.00 0.05 69 1024.0
20260906052822 16 5 3.2 6.4 0.00 0.00 0.05 70 1024.0
20260906052322 16 344 0.0 3.2 0.00 0.00 0.05 69 1024.0
20260906051822 16 5 1.6 3.2 0.00 0.00 0.05 68 1024.0
20260906051323 16 24 3.2 3.2 0.00 0.00 0.05 68 1024.0
20260906050822 17 25 1.6 3.2 0.00 0.00 0.05 69 1024.0
20260906050322 17 350 3.2 4.8 0.00 0.00 0.05 67 1024.0
20260906045822 17 359 3.2 3.2 0.00 0.00 0.05 66 1024.0
20260906045322 17 58 0.0 1.6 0.00 0.00 0.05 67 1024.0
20260906044822 17 289 1.6 3.2 0.00 0.00 0.05 66 1024.0
20260906044322 17 355 0.0 1.6 0.00 0.00 0.05 67 1024.0
20260906043822 17 301 0.0 3.2 0.00 0.00 0.05 68 1024.0
20260906043322 17 290 4.8 4.8 0.00 0.00 0.05 67 1024.0
20260906042822 18 298 3.2 4.8 0.00 0.00 0.05 66 1024.0
20260906042322 17 305 1.6 3.2 0.00 0.00 0.05 65 1024.0
20260906041822 17 293 3.2 3.2 0.00 0.00 0.05 63 1024.0
20260906041322 18 312 3.2 4.8 0.00 0.00 0.05 60 1024.0
20260906040822 18 339 1.6 3.2 0.00 0.00 0.05 60 1024.0
20260906040322 18 300 1.6 3.2 0.00 0.00 0.05 60 1024.0
20260906035822 18 319 1.6 3.2 0.00 0.00 0.05 63 1024.0
20260906035322 18 287 6.4 8.0 0.00 0.00 0.05 62 1024.0
20260906034822 18 289 4.8 6.4 0.00 0.00 0.05 62 1024.0
20260906034322 18 291 4.8 8.0 0.00 0.00 0.05 62 1024.0
20260906033822 18 296 6.4 8.0 0.00 0.00 0.05 61 1024.0
20260906033324 18 290 6.4 8.0 0.00 0.00 0.05 59 1024.0
20260906032823 18 291 6.4 8.0 0.00 0.00 0.05 57 1024.0
20260906032322 18 286 4.8 8.0 0.00 0.00 0.05 56 1024.0
20260906031822 19 291 4.8 8.0 0.00 0.00 0.05 54 1024.0
20260906031322 19 297 4.8 9.7 0.00 0.00 0.05 54 1024.0
20260906030822 19 295 4.8 6.4 0.00 0.00 0.05 54 1024.0
20260906030322 19 291 6.4 9.7 0.00 0.00 0.05 51 1024.0
20260906025822 20 292 8.0 11.3 0.00 0.00 0.05 54 1024.0
20260906025324 20 254 4.8 9.7 0.00 0.00 0.05 51 1024.0
20260906024822 20 242 3.2 4.8 0.00 0.00 0.05 50 1024.0
20260906024322 20 191 4.8 6.4 0.00 0.00 0.05 50 1024.0
20260906023822 19 176 3.2 6.4 0.00 0.00 0.05 48 1024.0
20260906023322 19 144 4.8 8.0 0.00 0.00 0.05 53 1024.0
20260906022822 19 61 1.6 4.8 0.00 0.00 0.05 50 1023.0
20260906022322 20 308 0.0 1.6 0.00 0.00 0.05 49 1023.0
20260906021822 20 339 4.8 6.4 0.00 0.00 0.05 48 1023.0
20260906021322 20 334 4.8 6.4 0.00 0.00 0.05 50 1023.0
20260906020822 20 329 3.2 4.8 0.00 0.00 0.05 49 1023.0
20260906020322 20 326 3.2 3.2 0.00 0.00 0.05 47 1023.0
20260906015822 20 331 4.8 6.4 0.00 0.00 0.05 48 1023.0
20260906015322 20 294 6.4 9.7 0.00 0.00 0.05 47 1023.0
20260906014822 21 291 6.4 8.0 0.00 0.00 0.05 47 1023.0
20260906014322 21 299 6.4 8.0 0.00 0.00 0.05 47 1023.0
20260906013822 21 291 8.0 9.7 0.00 0.00 0.05 49 1023.0
20260906013323 22 290 8.0 11.3 0.00 0.00 0.05 47 1022.0
20260906012822 22 284 6.4 9.7 0.00 0.00 0.05 45 1022.0
20260906012322 23 298 3.2 6.4 0.00 0.00 0.05 42 1022.0
20260906011822 25 282 1.6 3.2 0.00 0.00 0.05 41 1022.0
20260906011322 25 346 1.6 1.6 0.00 0.00 0.05 35 1022.0
20260906010822 26 295 0.0 3.2 0.00 0.00 0.05 35 1022.0
20260906010322 26 266 1.6 3.2 0.00 0.00 0.05 35 1023.0
20260906005823 26 280 0.0 1.6 0.00 0.00 0.05 34 1023.0
20260906005323 27 60 1.6 3.2 0.00 0.00 0.05 34 1023.0
20260906004822 27 49 1.6 3.2 0.00 0.00 0.05 32 1023.0
20260906004322 27 228 1.6 3.2 0.00 0.00 0.05 33 1023.0
20260906003824 27 229 3.2 4.8 0.00 0.00 0.05 33 1023.0
20260906003322 27 351 1.6 3.2 0.00 0.00 0.05 32 1023.0
20260906002822 26 297 3.2 4.8 0.00 0.00 0.05 33 1023.0
20260906002322 26 309 1.6 3.2 0.00 0.00 0.05 34 1023.0
20260906001823 25 336 3.2 6.4 0.00 0.00 0.05 34 1023.0
20260906001323 25 323 1.6 3.2 0.00 0.00 0.05 38 1023.0
20260906000822 25 345 3.2 4.8 0.00 0.00 0.05 35 1023.0
20260906000322 25 337 1.6 3.2 0.00 0.00 0.05 36 1023.0
20260905235822 25 312 1.6 3.2 0.00 0.00 0.05 36 1023.0
20260905235322 25 285 3.2 3.2 0.00 0.00 0.05 43 1023.0
20260905234823 25 297 3.2 4.8 0.00 0.00 0.05 38 1023.0
20260905234322 25 301 4.8 6.4 0.00 0.00 0.05 39 1023.0
20260905233822 25 297 3.2 6.4 0.00 0.00 0.05 37 1023.0
20260905233322 25 276 3.2 4.8 0.00 0.00 0.05 37 1023.0
20260905232823 25 280 3.2 3.2 0.00 0.00 0.05 35 1023.0
20260905232321 26 249 1.6 3.2 0.00 0.00 0.05 35 1023.0
20260905231823 26 275 3.2 4.8 0.00 0.00 0.05 35 1023.0
20260905231322 26 290 3.2 4.8 0.00 0.00 0.05 34 1023.0
20260905230822 26 293 3.2 6.4 0.00 0.00 0.05 34 1023.0
20260905230323 26 289 3.2 4.8 0.00 0.00 0.05 34 1023.0
20260905225822 26 270 3.2 4.8 0.00 0.00 0.05 36 1023.0
20260905225322 26 232 4.8 6.4 0.00 0.00 0.05 35 1023.0
20260905224822 26 239 4.8 6.4 0.00 0.00 0.05 36 1023.0
20260905224322 26 281 4.8 6.4 0.00 0.00 0.05 35 1023.0
20260905223822 26 329 3.2 4.8 0.00 0.00 0.05 33 1023.0
20260905223322 26 336 1.6 3.2 0.00 0.00 0.05 33 1023.0
20260905222822 26 306 3.2 6.4 0.00 0.00 0.05 33 1023.0
20260905222322 26 1 1.6 3.2 0.00 0.00 0.05 32 1023.0
20260905221824 26 247 3.2 6.4 0.00 0.00 0.05 33 1023.0
20260905221322 26 221 3.2 6.4 0.00 0.00 0.05 34 1023.0
20260905220822 26 146 6.4 9.7 0.00 0.00 0.05 32 1023.0
20260905220323 26 161 3.2 3.2 0.00 0.00 0.05 34 1023.0
20260905215822 26 216 6.4 11.3 0.00 0.00 0.05 34 1023.0
20260905215322 26 235 6.4 9.7 0.00 0.00 0.05 33 1023.0
20260905214822 26 162 6.4 9.7 0.00 0.00 0.05 35 1023.0
20260905214323 26 138 1.6 4.8 0.00 0.00 0.05 34 1023.0
20260905213822 25 333 4.8 8.0 0.00 0.00 0.05 34 1023.0
20260905213322 26 348 8.0 14.5 0.00 0.00 0.03 36 1023.0
20260905212822 26 4 3.2 4.8 0.00 0.00 0.03 38 1023.0
20260905212327 26 339 3.2 4.8 0.18 0.00 0.00 31 1023.0
20260905211822 27 341 4.8 9.7 0.03 0.00 0.00 30 1023.0
20260905211323 27 71 3.2 8.0 0.00 0.00 0.00 29 1023.0
20260905210822 27 157 3.2 4.8 0.00 0.00 0.00 29 1023.0
20260905210322 27 61 1.6 3.2 0.00 0.00 0.00 29 1023.0
20260905205823 27 108 3.2 4.8 0.00 0.00 0.00 29 1023.0
20260905205322 27 103 1.6 4.8 0.00 0.00 0.00 29 1023.0
20260905204823 27 85 3.2 6.4 0.00 0.00 0.00 28 1023.0
20260905204323 28 58 4.8 8.0 0.00 0.00 0.00 29 1023.0
20260905203822 28 100 3.2 4.8 0.00 0.00 0.00 28 1023.0
20260905203326 28 93 3.2 6.4 0.00 0.00 0.00 28 1023.0
20260905202822 28 78 3.2 6.4 0.00 0.00 0.00 28 1023.0
20260905202322 28 127 6.4 9.7 0.00 0.00 0.00 29 1023.0
20260905201822 28 110 4.8 9.7 0.00 0.00 0.00 28 1023.0
20260905201324 28 67 4.8 9.7 0.00 0.00 0.00 28 1023.0
20260905200823 28 115 3.2 8.0 0.00 0.00 0.00 29 1023.0
20260905200322 28 36 3.2 6.4 0.00 0.00 0.00 28 1023.0
20260905195822 28 97 3.2 8.0 0.00 0.00 0.00 29 1023.0
20260905195322 28 83 4.8 8.0 0.00 0.00 0.00 28 1023.0
20260905194823 28 337 1.6 6.4 0.00 0.00 0.00 28 1023.0
20260905194323 28 127 4.8 8.0 0.00 0.00 0.00 27 1023.0
20260905193822 29 79 6.4 11.3 0.00 0.00 0.00 28 1023.0
20260905193322 30 84 8.0 14.5 0.00 0.00 0.00 28 1023.0
20260905192822 30 104 3.2 6.4 0.00 0.00 0.00 28 1023.0
20260905192323 30 109 6.4 12.9 0.00 0.00 0.00 26 1023.0
20260905191823 30 67 1.6 4.8 0.00 0.00 0.00 27 1023.0
20260905191322 30 295 1.6 6.4 0.00 0.00 0.00 27 1023.0
20260905190824 30 2 4.8 9.7 0.00 0.00 0.00 27 1023.0
20260905190322 30 51 4.8 11.3 0.00 0.00 0.00 26 1023.0
20260905185824 30 92 6.4 9.7 0.00 0.00 0.00 27 1023.0
20260905185323 30 351 4.8 9.7 0.00 0.00 0.00 28 1023.0
20260905184823 30 42 4.8 8.0 0.00 0.00 0.00 27 1024.0
20260905184322 30 37 1.6 4.8 0.00 0.00 0.00 27 1024.0
20260905183822 30 58 4.8 9.7 0.00 0.00 0.00 26 1024.0
20260905183323 29 92 4.8 8.0 0.00 0.00 0.00 27 1024.0
20260905182822 28 97 3.2 8.0 0.00 0.00 0.00 28 1024.0
20260905182322 28 92 6.4 11.3 0.00 0.00 0.00 28 1024.0
20260905181822 28 91 4.8 9.7 0.00 0.00 0.00 28 1024.0
20260905181322 28 9 6.4 14.5 0.00 0.00 0.00 28 1024.0
20260905180822 28 176 1.6 3.2 0.00 0.00 0.00 28 1024.0
20260905180323 28 119 3.2 6.4 0.00 0.00 0.00 28 1024.0
20260905175822 28 94 1.6 4.8 0.00 0.00 0.00 29 1024.0
20260905175322 27 95 3.2 4.8 0.00 0.00 0.00 30 1024.0
20260905174822 27 255 3.2 4.8 0.00 0.00 0.00 30 1024.0
20260905174322 28 119 4.8 8.0 0.00 0.00 0.00 29 1024.0
20260905173822 28 99 4.8 8.0 0.00 0.00 0.00 28 1024.0
20260905173323 28 96 4.8 11.3 0.00 0.00 0.00 29 1024.0
20260905172822 28 65 4.8 9.7 0.00 0.00 0.00 28 1024.0
20260905172323 28 79 4.8 8.0 0.00 0.00 0.00 29 1024.0
20260905171822 28 67 4.8 8.0 0.00 0.00 0.00 29 1024.0
20260905171323 28 113 6.4 9.7 0.00 0.00 0.00 29 1024.0
20260905170822 28 84 4.8 9.7 0.00 0.00 0.00 29 1024.0
20260905170322 27 6 4.8 12.9 0.00 0.00 0.00 29 1024.0
20260905165822 27 349 6.4 9.7 0.00 0.00 0.00 29 1024.0
20260905165322 27 91 4.8 9.7 0.00 0.00 0.00 29 1024.0
20260905164823 27 144 3.2 4.8 0.00 0.00 0.00 30 1024.0
20260905164322 27 128 3.2 11.3 0.00 0.00 0.00 30 1024.0
20260905163822 27 95 4.8 9.7 0.00 0.00 0.00 30 1024.0
20260905163322 27 329 3.2 8.0 0.00 0.00 0.00 30 1024.0
20260905162822 26 342 4.8 8.0 0.00 0.00 0.00 31 1024.0
20260905162322 26 360 3.2 4.8 0.00 0.00 0.00 32 1024.0
20260905161822 26 45 4.8 9.7 0.00 0.00 0.00 33 1024.0
20260905161322 26 84 3.2 6.4 0.00 0.00 0.00 33 1024.0
20260905160822 25 81 3.2 6.4 0.00 0.00 0.00 34 1024.0
20260905160322 25 352 3.2 8.0 0.00 0.00 0.00 34 1024.0
20260905155822 25 29 4.8 12.9 0.00 0.00 0.00 34 1024.0
20260905155324 25 334 4.8 8.0 0.00 0.00 0.00 34 1024.0
20260905154822 25 359 6.4 11.3 0.00 0.00 0.00 32 1024.0
20260905154322 25 309 3.2 6.4 0.00 0.00 0.00 34 1024.0
20260905153822 25 357 4.8 9.7 0.00 0.00 0.00 34 1024.0
20260905153322 25 2 6.4 9.7 0.00 0.00 0.00 35 1024.0
20260905152822 25 358 6.4 8.0 0.00 0.00 0.00 34 1024.0
20260905152324 25 340 4.8 8.0 0.00 0.00 0.00 35 1024.0
20260905151823 25 355 3.2 9.7 0.00 0.00 0.00 35 1024.0
20260905151322 24 350 4.8 6.4 0.00 0.00 0.00 36 1024.0
20260905150823 24 354 6.4 11.3 0.00 0.00 0.00 37 1024.0
20260905150323 24 300 3.2 6.4 0.00 0.00 0.00 39 1024.0
20260905145823 24 339 4.8 9.7 0.00 0.00 0.00 37 1024.0
20260905145322 24 359 1.6 6.4 0.00 0.00 0.00 37 1024.0
20260905144826 23 329 4.8 8.0 0.00 0.00 0.00 38 1024.0
20260905144323 23 11 3.2 8.0 0.00 0.00 0.00 41 1024.0
20260905143822 23 35 3.2 6.4 0.00 0.00 0.00 41 1024.0
20260905143322 22 331 1.6 6.4 0.00 0.00 0.00 43 1024.0
20260905142823 22 360 3.2 6.4 0.00 0.00 0.00 43 1024.0
20260905142322 22 4 4.8 6.4 0.00 0.00 0.00 43 1024.0
20260905141822 22 351 4.8 6.4 0.00 0.00 0.00 43 1024.0
20260905141322 21 360 3.2 6.4 0.00 0.00 0.00 44 1024.0
20260905140823 21 360 1.6 3.2 0.00 0.00 0.00 44 1024.0
20260905140322 20 326 1.6 4.8 0.00 0.00 0.00 47 1024.0
20260905135822 20 308 1.6 3.2 0.00 0.00 0.00 46 1024.0
20260905135323 20 334 1.6 3.2 0.00 0.00 0.00 47 1024.0
20260905134822 19 24 3.2 6.4 0.00 0.00 0.00 44 1024.0
20260905134322 19 35 1.6 3.2 0.00 0.00 0.00 47 1024.0
20260905133822 19 217 3.2 3.2 0.00 0.00 0.00 49 1024.0
20260905133322 19 67 0.0 3.2 0.00 0.00 0.00 47 1024.0
20260905132823 19 360 0.0 0.0 0.00 0.00 0.00 46 1024.0
20260905132322 19 44 3.2 4.8 0.00 0.00 0.00 46 1024.0
20260905131822 20 124 3.2 6.4 0.00 0.00 0.00 47 1024.0
20260905131324 19 234 1.6 3.2 0.00 0.00 0.00 43 1023.0
20260905130822 18 275 1.6 4.8 0.00 0.00 0.00 51 1023.0
20260905130322 18 152 4.8 8.0 0.00 0.00 0.00 49 1023.0
20260905125822 18 30 3.2 4.8 0.00 0.00 0.00 52 1023.0
20260905125322 17 324 1.6 6.4 0.00 0.00 0.00 50 1023.0
20260905124822 17 18 4.8 8.0 0.00 0.00 0.00 53 1023.0
20260905124323 17 23 6.4 11.3 0.00 0.00 0.00 54 1023.0
20260905123822 17 348 3.2 6.4 0.00 0.00 0.00 55 1023.0
20260905123322 18 29 3.2 6.4 0.00 0.00 0.00 54 1023.0
20260905122823 18 354 3.2 9.7 0.00 0.00 0.00 48 1023.0
20260905122322 17 316 3.2 4.8 0.00 0.00 0.00 50 1023.0
20260905121822 16 260 6.4 14.5 0.00 0.00 0.00 56 1023.0
20260905121322 14 285 4.8 6.4 0.00 0.00 0.00 59 1023.0
20260905120823 13 36 3.2 6.4 0.00 0.00 0.00 72 1023.0
20260905120322 13 35 6.4 9.7 0.00 0.00 0.00 71 1023.0
20260905115822 13 305 4.8 8.0 0.00 0.00 0.00 75 1023.0
20260905115322 13 257 3.2 6.4 0.00 0.00 0.00 71 1023.0
20260905114822 13 21 3.2 4.8 0.00 0.00 0.00 75 1023.0
20260905114322 12 63 9.7 14.5 0.00 0.00 0.00 73 1023.0
20260905113825 11 87 1.6 3.2 0.00 0.00 0.00 79 1023.0
20260905113322 12 342 3.2 6.4 0.00 0.00 0.00 80 1023.0
20260905112822 12 44 1.6 4.8 0.00 0.00 0.00 77 1023.0
20260905112322 12 276 3.2 6.4 0.00 0.00 0.00 77 1023.0
20260905111823 12 191 3.2 6.4 0.00 0.00 0.00 79 1023.0
20260905111322 11 334 3.2 4.8 0.00 0.00 0.00 78 1023.0
20260905110823 11 338 3.2 6.4 0.00 0.00 0.00 79 1023.0
20260905110322 11 22 4.8 9.7 0.00 0.00 0.00 79 1023.0
20260905105823 11 36 1.6 3.2 0.00 0.00 0.00 79 1023.0
20260905105322 11 4 3.2 6.4 0.00 0.00 0.00 78 1023.0
20260905104823 12 31 3.2 6.4 0.00 0.00 0.00 78 1023.0
20260905104322 12 357 6.4 8.0 0.00 0.00 0.00 77 1023.0
20260905103821 12 354 3.2 4.8 0.00 0.00 0.00 75 1023.0
20260905103322 12 322 1.6 1.6 0.00 0.00 0.00 75 1023.0
20260905102822 12 309 3.2 3.2 0.00 0.00 0.00 76 1023.0
20260905102323 12 358 1.6 3.2 0.00 0.00 0.00 76 1023.0
20260905101822 12 356 1.6 3.2 0.00 0.00 0.00 76 1023.0
20260905101322 12 352 1.6 3.2 0.00 0.00 0.00 76 1023.0
20260905100822 12 348 1.6 3.2 0.00 0.00 0.00 76 1023.0
20260905100322 12 343 3.2 4.8 0.00 0.00 0.00 75 1023.0
20260905095822 12 1 1.6 3.2 0.00 0.00 0.00 76 1023.0
20260905095322 12 342 3.2 4.8 0.00 0.00 0.00 74 1023.0
20260905094823 12 360 1.6 3.2 0.00 0.00 0.00 76 1023.0
20260905094322 12 357 3.2 6.4 0.00 0.00 0.00 76 1023.0
20260905093823 12 350 3.2 3.2 0.00 0.00 0.00 76 1023.0
20260905093323 13 10 3.2 4.8 0.00 0.00 0.00 76 1023.0